Location: Home
(42.5358°N, 72.7383°W)
Time: 06:16:55
(UTC-05:00)

Courier 1B Rocket - Pass Details

Date: 07 December 2021
Orbit: 920 x 1202 km, 28.2° (Epoch: 25 January)

Event Time Altitude Azimuth Distance (km) Brightness Sun altitude
Rises 21:24:08 0° 232° (SW) 3,769 - -55.1°
Reaches altitude 10° 21:27:37 10° 217° (SW) 2,765 - -55.7°
Maximum altitude 21:32:17 20° 172° (S) 2,057 - -56.5°
Drops below altitude 10° 21:36:48 10° 126° (SE) 2,654 - -57.2°
Sets 21:40:03 0° 110° (ESE) 3,572 - -57.7°
